FloripaSat 1
1 44885U 19093G   25171.83261792  .00003582  00000-0  30361-3 0  9999
2 44885  97.8153 259.4568 0010981 165.4919 194.6621 14.98574016298437
RS-44
1 44909U 19096E   25171.10813737  .00000013  00000-0  15269-4 0  9998
2 44909  82.5207 220.2836 0216244 270.9778  86.6555 12.79741288256034
UPMSat 2
1 46276U 20061E   25171.46167717  .00060368  00000-0  49866-3 0  9998
2 46276  97.2435 246.2203 0002186 159.2632 200.8719 15.70130950267172
SALSAT
1 46495U 20068K   25171.39236996  .00005279  00000-0  22816-3 0  9992
2 46495  97.8604 149.9207 0012893 120.7185 239.5322 15.22873261260172
CubeSX-Sirius-HSE
1 47951U 21022V   25157.62701764  .07883385  25648-5  89537-3 0  9993
2 47951  97.4004  72.1904 0010275 223.9924 136.0557 16.36879307233400
CubeSX-HSE
1 47952U 21022W   25157.69972699  .06655353  25454-5  93288-3 0  9992
2 47952  97.3980  72.5414 0010307 219.3637 140.6911 16.34906352233436
GRBAlpha
1 47959U 21022AD  25160.45426279  .07940347  25506-5  90589-3 0  9995
2 47959  97.3899  75.6235 0011032 227.2558 132.7812 16.36806138232695
TUBIN
1 48900U 21059X   25171.81367363  .00033005  00000-0  38700-3 0  9993
2 48900  97.6752 341.9614 0003999 178.3778 181.7492 15.61444182221797
LEDSAT
1 49069U 21073D   25171.20107535  .00061683  00000-0  69965-3 0  9992
2 49069  97.3884 253.1924 0008069  45.7855 314.4064 15.62143374213095
CUTE
1 49263U 21088D   25171.54745061  .00010715  00000-0  21133-3 0  9998
2 49263  97.4507 248.1225 0008125 190.8469 169.2607 15.47341639206120
TeikyoSat 4
1 49396U 21102B   25171.36940136  .00001692  00000-0  11464-3 0  9992
2 49396  97.4094 209.4082 0014231  96.3573 263.9276 15.07685302198173
Z-Sat
1 49399U 21102E   25171.85100025  .00003418  00000-0  18831-3 0  9997
2 49399  97.3793 213.0377 0019603  67.8462 292.4849 15.14498934198687
KOSEN 1
1 49402U 21102H   25171.85946942  .00005315  00000-0  24591-3 0  9996
2 49402  97.3701 216.5464 0016813  45.0534 315.2062 15.20432285199006
HO-113
1 50466U 21131B   25171.87208583  .00000351  00000-0  12342-3 0  9990
2 50466  98.5106 261.1696 0005458 101.6886 258.4915 14.40826864183071
Foresail-1
1 52766U 22057AL  25171.69728334  .01188539  99544-3  93768-3 0  9995
2 52766  97.6059 325.4194 0011987 253.8954 106.1012 16.14721060171686
SNUGLITE 2
1 52899U 22065F   25171.36299534  .00000850  00000-0  17406-3 0  9999
2 52899  98.1701 313.2320 0008913  82.2385 277.9829 14.63237104158069
UmKA 1 (RS40S)
1 57172U 23091G   25171.83197082  .00004263  00000-0  22849-3 0  9994
2 57172  97.5576 227.1554 0012799 298.1243  61.8695 15.15467351109188
CubeBel-2 (EU11S)
1 57175U 23091K   25171.83208636  .00006712  00000-0  31879-3 0  9999
2 57175  97.5576 228.3706 0010551 306.5968  53.4295 15.19518526109262
VERONIKA
1 58261U 23174F   25171.66116683  .00146788  00000-0  10348-2 0  9994
2 58261  97.4108 258.5269 0001878 296.3336  63.7735 15.73637269 90421
ENSO
1 58470U 23185J   25171.82403788  .00043968  00000-0  60779-3 0  9991
2 58470  97.3731 247.3120 0006271  52.9619 307.2209 15.57003351 86785
EIRSAT-1
1 58472U 23185L   25171.87206840  .00094187  00000-0  78603-3 0  9992
2 58472  97.3675 249.4682 0002865  64.9257 295.2302 15.69765008 86930
SONATE-2
1 59112U 24043Q   25171.30948070  .00013705  00000-0  39108-3 0  9998
2 59112  97.5143 302.7054 0012114  79.6826 280.5783 15.36088919 71985
MO-122
1 60209U 24125G   25171.38668736  .00014693  00000-0  41225-3 0  9994
2 60209  97.2789  22.8858 0020326  98.9514 261.4033 15.36456734 53611
GRBBeta
1 60237U 24128C   25171.11668260  .00003555  00000-0  27270-3 0  9990
2 60237  61.9925  42.8180 0052763  59.9088 300.7219 15.02721677 51788
Curium One
1 60242U 24128H   25171.06923342  .00006077  00000-0  42484-3 0  9991
2 60242  61.9824  41.1215 0052676  56.1653 304.4436 15.05261644 51815
ROBUSTA-3A
1 60243U 24128J   25171.07516641  .00005747  00000-0  40822-3 0  9990
2 60243  61.9894  41.9638 0051534  53.8836 306.7010 15.04792042 51801
CatSat
1 60246U 24125J   25171.02195782  .00008036  00000-0  26662-3 0  9994
2 60246  97.2588  21.6204 0043677  58.5753 301.9747 15.30565801 51588
HYPERVIEW-1G (RS66S)
1 61772U 24199AP  25171.88344603  .00015291  00000-0  43815-3 0  9992
2 61772  97.3528  40.7202 0014747 146.2697 213.9488 15.35892446 78694
AO-123
1 61781U 24199AY  25171.84063829  .00004909  00000-0  17905-3 0  9991
2 61781  97.3541  39.4438 0016625 152.3860 207.8266 15.28495557 78603
ZIMSAT 2
1 61783U 24199BA  25171.89656072  .00027467  00000-0  65569-3 0  9999
2 61783  97.3505  41.4337 0014768 143.4036 216.8222 15.41388021 81897
HADES-R (SO-124)
1 62690U 25009CK  25171.47015037  .00027856  00000-0  96420-3 0  9994
2 62690  97.4075 252.2364 0003432  82.5676 277.5954 15.29831713 23810
HYDRA-T
1 62692U 25009CM  25171.19215985  .00029415  00000-0  10098-2 0  9998
2 62692  97.4088 251.9977 0003067  80.7189 279.4398 15.30089498 23770
JINJUSat 1B
1 63210U 25052A   25170.66272153  .00008600  00000-0  39250-3 0  9999
2 63210  97.4409  64.6585 0002417 300.9197  59.1801 15.20847522 14784
NUSHSAT 1
1 63211U 25052B   25171.44548678  .00010064  00000-0  45520-3 0  9999
2 63211  97.4401  65.4353 0002451 306.3006  53.8003 15.21111967 14903
TEVEL2-4
1 63213U 25052D   25171.46123705  .00009497  00000-0  43360-3 0  9991
2 63213  97.4318  65.3110 0002152 341.8950  18.2209 15.20805407 14903
TEVEL2-5
1 63214U 25052E   25171.46196049  .00009253  00000-0  42280-3 0  9993
2 63214  97.4318  65.3103 0002185 341.1465  18.9689 15.20784941 14904
TEVEL2-6
1 63215U 25052F   25171.46438542  .00009239  00000-0  42266-3 0  9999
2 63215  97.4318  65.3082 0002259 341.8984  18.2171 15.20744475 14903
TEVEL2-1
1 63217U 25052H   25171.14796950  .00008497  00000-0  39155-3 0  9994
2 63217  97.4295  64.9363 0002907 358.2187   1.9037 15.20519878 14854
TEVEL2-2
1 63218U 25052J   25171.14826895  .00008609  00000-0  39664-3 0  9997
2 63218  97.4297  64.9370 0002974 358.6697   1.4529 15.20521089 14857
TEVEL2-3
1 63219U 25052K   25171.14842666  .00008679  00000-0  39989-3 0  9999
2 63219  97.4294  64.9364 0002957 359.5230   0.6002 15.20515685 14854
TEVEL2-8
1 63237U 25052AD  25170.69536444  .00008506  00000-0  40578-3 0  9997
2 63237  97.4357  64.3995 0007624 354.4512   5.6637 15.19298783 14776
TEVEL2-9
1 63238U 25052AE  25170.69810594  .00008461  00000-0  40436-3 0  9992
2 63238  97.4359  64.3980 0007720 354.5831   5.5319 15.19237221 14771
TEVEL2-7
1 63239U 25052AF  25170.70028755  .00008570  00000-0  40993-3 0  9994
2 63239  97.4358  64.3938 0007739 354.5396   5.5753 15.19203068 14774
HYDRA-W
1 63490U 25052BL  25170.92331118  .00020559  00000-0  85594-3 0  9994
2 63490  97.4305  64.9479 0010811 346.9351  13.1605 15.23719372 14835
HADES-ICM (SO-125)
1 63492U 25052BN  25170.67846516  .00019193  00000-0  81022-3 0  9995
2 63492  97.4310  64.6711 0011246 351.3502   8.7539 15.23259855 14796
